START_TIME,STEP,MOV.,P11,t_acc.,P23,t_acc.,P27,t_acc.,A4,t_acc.
1981-08-29 12:00:23.720 ,5,0,0.,4.8,0.,4.8,0.,4.8,0.,4.8
1981-08-29 12:00:28.520 ,5,0,1.,4.8,0.,4.8,2.,4.8,0.,4.8
1981-08-29 12:00:33.320 ,5,0,1.,4.8,0.,4.8,0.,4.8,0.,4.8
1981-08-29 12:00:38.120 ,5,0,0.,4.8,0.,4.8,0.,4.8,0.,4.8
1981-08-29 12:00:42.920 ,5,0,0.,4.8,0.,4.8,0.,4.8,0.,4.8
1981-08-29 12:00:47.720 ,4,0,0.,4.8,0.,4.8,0.,4.8,0.,4.8
1981-08-29 12:00:52.520 ,4,0,0.,4.8,0.,4.8,0.,4.8,0.,4.8
1981-08-29 12:00:57.320 ,4,0,2.,4.8,0.,4.8,0.,4.8,0.,4.8
1981-08-29 12:01:02.120 ,4,0,0.,4.8,0.,4.8,0.,4.8,0.,4.8
1981-08-29 12:01:06.920 ,4,0,0.,4.8,0.,4.8,0.,4.8,0.,4.8
1981-08-29 12:01:11.720 ,4,0,2.,4.8,0.,4.8,0.,4.8,0.,4.8
1981-08-29 12:01:16.520 ,4,0,1.,4.8,0.,4.8,0.,4.8,0.,4.8
1981-08-29 12:01:21.320 ,4,0,1.,4.8,0.,4.8,0.,4.8,0.,4.8
1981-08-29 12:01:26.120 ,4,0,0.,4.8,0.,4.8,0.,4.8,0.,4.8
1981-08-29 12:01:30.920 ,4,0,0.,4.8,0.,4.8,0.,4.8,0.,4.8
1981-08-29 12:01:35.720 ,3,0,0.,4.8,0.,4.8,0.,4.8,0.,4.8
1981-08-29 12:01:40.520 ,3,0,0.,4.8,0.,4.8,0.,4.8,0.,4.8
1981-08-29 12:01:45.320 ,3,0,0.,4.8,0.,4.8,0.,4.8,0.,4.8
1981-08-29 12:01:50.120 ,3,0,1.,4.8,0.,4.8,0.,4.8,0.,4.8
1981-08-29 12:01:54.920 ,3,0,0.,4.8,0.,4.8,0.,4.8,0.,4.8
1981-08-29 12:01:59.720 ,3,0,1.,4.8,0.,4.8,0.,4.8,0.,4.8
1981-08-29 12:02:04.520 ,3,0,0.,4.8,0.,4.8,0.,4.8,0.,4.8
1981-08-29 12:02:09.320 ,3,0,1.,4.8,0.,4.8,0.,4.8,0.,4.8
1981-08-29 12:02:14.120 ,3,0,0.,4.8,0.,4.8,0.,4.8,0.,4.8
1981-08-29 12:02:18.920 ,3,0,0.,4.8,1.,4.8,0.,4.8,0.,4.8
1981-08-29 12:02:23.720 ,2,0,0.,4.8,0.,4.8,0.,4.8,0.,4.8
1981-08-29 12:02:28.520 ,2,0,1.,4.8,0.,4.8,0.,4.8,0.,4.8
1981-08-29 12:02:33.320 ,2,0,0.,4.8,0.,4.8,0.,4.8,0.,4.8
1981-08-29 12:02:38.120 ,2,0,1.,4.8,0.,4.8,1.,4.8,0.,4.8
1981-08-29 12:02:42.920 ,2,0,1.,4.8,0.,4.8,0.,4.8,0.,4.8
1981-08-29 12:02:47.720 ,2,0,2.,4.8,0.,4.8,0.,4.8,0.,4.8
1981-08-29 12:02:52.520 ,2,0,0.,4.8,0.,4.8,0.,4.8,0.,4.8
1981-08-29 12:02:57.320 ,2,0,0.,4.8,0.,4.8,0.,4.8,0.,4.8
1981-08-29 12:03:02.120 ,2,0,0.,4.8,0.,4.8,0.,4.8,0.,4.8
1981-08-29 12:03:06.920 ,2,0,0.,4.8,0.,4.8,0.,4.8,0.,4.8
1981-08-29 12:03:11.720 ,1,0,0.,4.8,0.,4.8,0.,4.8,0.,4.8
1981-08-29 12:03:16.520 ,1,0,0.,4.8,0.,4.8,0.,4.8,0.,4.8
1981-08-29 12:03:21.320 ,1,0,1.,4.8,0.,4.8,0.,4.8,0.,4.8
1981-08-29 12:03:26.120 ,1,0,0.,4.8,0.,4.8,0.,4.8,0.,4.8
1981-08-29 12:03:30.920 ,1,0,4.,4.8,0.,4.8,0.,4.8,0.,4.8
1981-08-29 12:03:35.720 ,1,0,0.,4.8,0.,4.8,0.,4.8,0.,4.8
1981-08-29 12:03:40.520 ,1,0,0.,4.8,0.,4.8,0.,4.8,0.,4.8
1981-08-29 12:03:45.320 ,1,0,0.,4.8,1.,4.8,0.,4.8,0.,4.8
1981-08-29 12:03:50.120 ,1,0,1.,4.8,0.,4.8,0.,4.8,0.,4.8
1981-08-29 12:03:54.920 ,1,0,0.,4.8,0.,4.8,0.,4.8,0.,4.8
1981-08-29 12:03:59.720 ,0,0,1.,4.8,0.,4.8,0.,4.8,0.,4.8
1981-08-29 12:04:04.520 ,0,0,1.,4.8,0.,4.8,0.,4.8,0.,4.8
1981-08-29 12:04:09.320 ,0,0,0.,4.8,0.,4.8,0.,4.8,0.,4.8
1981-08-29 12:04:14.120 ,0,0,0.,4.8,0.,4.8,0.,4.8,0.,4.8
1981-08-29 12:04:18.920 ,0,0,2.,4.8,0.,4.8,0.,4.8,0.,4.8
1981-08-29 12:04:23.720 ,0,0,0.,4.8,0.,4.8,1.,4.8,0.,4.8
1981-08-29 12:04:28.520 ,0,0,0.,4.8,0.,4.8,0.,4.8,0.,4.8
1981-08-29 12:04:33.320 ,0,0,0.,4.8,0.,4.8,0.,4.8,0.,4.8
1981-08-29 12:04:38.120 ,0,0,0.,4.8,0.,4.8,0.,4.8,0.,4.8
1981-08-29 12:04:42.920 ,0,0,0.,4.8,0.,4.8,0.,4.8,0.,4.8
1981-08-29 12:04:47.720 ,0,0,0.,4.8,0.,4.8,0.,4.8,0.,4.8
1981-08-29 12:04:52.520 ,0,0,0.,4.8,0.,4.8,0.,4.8,0.,4.8
1981-08-29 12:04:57.320 ,0,0,0.,4.8,0.,4.8,1.,4.8,0.,4.8
1981-08-29 12:05:02.120 ,0,0,1.,4.8,0.,4.8,0.,4.8,0.,4.8
1981-08-29 12:05:06.920 ,0,0,1.,4.8,0.,4.8,0.,4.8,0.,4.8
1981-08-29 12:05:11.720 ,0,0,0.,4.8,0.,4.8,0.,4.8,0.,4.8
1981-08-29 12:05:16.520 ,0,0,0.,4.8,0.,4.8,0.,4.8,0.,4.8
1981-08-29 12:05:21.320 ,0,0,0.,4.8,0.,4.8,0.,4.8,0.,4.8
1981-08-29 12:05:26.120 ,0,0,1.,4.8,0.,4.8,0.,4.8,0.,4.8
1981-08-29 12:05:30.920 ,0,0,0.,4.8,0.,4.8,0.,4.8,0.,4.8
1981-08-29 12:05:35.720 ,1,0,0.,4.8,0.,4.8,0.,4.8,0.,4.8
1981-08-29 12:05:40.520 ,1,0,0.,4.8,0.,4.8,0.,4.8,0.,4.8
1981-08-29 12:05:45.320 ,1,0,0.,4.8,0.,4.8,0.,4.8,0.,4.8
1981-08-29 12:05:50.120 ,1,0,1.,4.8,0.,4.8,0.,4.8,0.,4.8
1981-08-29 12:05:54.920 ,1,0,0.,4.8,0.,4.8,0.,4.8,0.,4.8
1981-08-29 12:05:59.720 ,1,0,0.,4.8,0.,4.8,1.,4.8,0.,4.8
1981-08-29 12:06:04.520 ,1,0,0.,4.8,0.,4.8,0.,4.8,0.,4.8
1981-08-29 12:06:09.320 ,1,0,0.,4.8,1.,4.8,0.,4.8,0.,4.8
1981-08-29 12:06:14.120 ,1,0,2.,4.8,0.,4.8,1.,4.8,0.,4.8
1981-08-29 12:06:18.920 ,1,0,0.,4.8,0.,4.8,0.,4.8,0.,4.8
1981-08-29 12:06:23.720 ,2,0,0.,4.8,0.,4.8,0.,4.8,0.,4.8
1981-08-29 12:06:28.520 ,2,0,0.,4.8,0.,4.8,0.,4.8,0.,4.8
1981-08-29 12:06:33.320 ,2,0,0.,4.8,0.,4.8,0.,4.8,0.,4.8
1981-08-29 12:06:38.120 ,2,0,1.,4.8,0.,4.8,0.,4.8,0.,4.8
1981-08-29 12:06:42.920 ,2,0,0.,4.8,0.,4.8,0.,4.8,0.,4.8
1981-08-29 12:06:47.720 ,2,0,0.,4.8,0.,4.8,0.,4.8,0.,4.8
1981-08-29 12:06:52.520 ,2,0,0.,4.8,0.,4.8,0.,4.8,0.,4.8
1981-08-29 12:06:57.320 ,2,0,0.,4.8,0.,4.8,0.,4.8,0.,4.8
1981-08-29 12:07:02.120 ,2,0,0.,4.8,0.,4.8,0.,4.8,0.,4.8
1981-08-29 12:07:06.920 ,2,0,0.,4.8,0.,4.8,0.,4.8,0.,4.8
1981-08-29 12:07:11.720 ,3,0,0.,4.8,0.,4.8,0.,4.8,0.,4.8
1981-08-29 12:07:16.520 ,3,0,0.,4.8,0.,4.8,0.,4.8,0.,4.8
1981-08-29 12:07:21.320 ,3,0,1.,4.8,0.,4.8,0.,4.8,0.,4.8
1981-08-29 12:07:26.120 ,3,0,0.,4.8,0.,4.8,0.,4.8,0.,4.8
1981-08-29 12:07:30.920 ,3,0,0.,4.8,0.,4.8,0.,4.8,0.,4.8
1981-08-29 12:07:35.720 ,3,0,0.,4.8,0.,4.8,0.,4.8,0.,4.8
1981-08-29 12:07:40.520 ,3,0,0.,4.8,0.,4.8,0.,4.8,0.,4.8
1981-08-29 12:07:45.320 ,3,0,0.,4.8,0.,4.8,0.,4.8,0.,4.8
1981-08-29 12:07:50.120 ,3,0,0.,4.8,0.,4.8,0.,4.8,0.,4.8
1981-08-29 12:07:54.920 ,3,0,0.,4.8,0.,4.8,0.,4.8,0.,4.8
1981-08-29 12:07:59.720 ,4,0,0.,4.8,0.,4.8,0.,4.8,0.,4.8
1981-08-29 12:08:04.520 ,4,0,0.,4.8,0.,4.8,0.,4.8,0.,4.8
1981-08-29 12:08:09.320 ,4,0,0.,4.8,0.,4.8,0.,4.8,0.,4.8
1981-08-29 12:08:14.120 ,4,0,0.,4.8,0.,4.8,0.,4.8,0.,4.8
1981-08-29 12:08:18.920 ,4,0,1.,4.8,0.,4.8,1.,4.8,0.,4.8
1981-08-29 12:08:23.720 ,4,0,1.,4.8,0.,4.8,0.,4.8,0.,4.8
1981-08-29 12:08:28.520 ,4,0,1.,4.8,0.,4.8,0.,4.8,0.,4.8
1981-08-29 12:08:33.320 ,4,0,0.,4.8,0.,4.8,0.,4.8,0.,4.8
1981-08-29 12:08:38.120 ,4,0,0.,4.8,0.,4.8,0.,4.8,0.,4.8
1981-08-29 12:08:42.920 ,4,0,0.,4.8,0.,4.8,0.,4.8,0.,4.8
1981-08-29 12:08:47.720 ,5,0,2.,4.8,0.,4.8,0.,4.8,0.,4.8
1981-08-29 12:08:52.520 ,5,0,0.,4.8,0.,4.8,0.,4.8,0.,4.8
1981-08-29 12:08:57.320 ,5,0,1.,4.8,0.,4.8,0.,4.8,0.,4.8
1981-08-29 12:09:02.120 ,5,0,1.,4.8,0.,4.8,0.,4.8,0.,4.8
1981-08-29 12:09:06.920 ,5,0,0.,4.8,0.,4.8,0.,4.8,0.,4.8
1981-08-29 12:09:11.720 ,5,0,1.,4.8,0.,4.8,0.,4.8,0.,4.8
1981-08-29 12:09:16.520 ,5,0,1.,4.8,0.,4.8,0.,4.8,0.,4.8
1981-08-29 12:09:21.320 ,5,0,1.,4.8,0.,4.8,0.,4.8,0.,4.8
1981-08-29 12:09:26.120 ,5,0,0.,4.8,0.,4.8,0.,4.8,0.,4.8
1981-08-29 12:09:30.920 ,5,0,0.,4.8,0.,4.8,0.,4.8,0.,4.8
1981-08-29 12:09:35.720 ,6,0,1.,4.8,0.,4.8,0.,4.8,0.,4.8
1981-08-29 12:09:40.520 ,6,0,0.,4.8,0.,4.8,1.,4.8,0.,4.8
1981-08-29 12:09:45.320 ,6,0,1.,4.8,0.,4.8,0.,4.8,0.,4.8
1981-08-29 12:09:50.120 ,6,0,0.,4.8,0.,4.8,0.,4.8,0.,4.8
1981-08-29 12:09:54.920 ,6,0,1.,4.8,0.,4.8,0.,4.8,0.,4.8
1981-08-29 12:09:59.720 ,6,0,1.,4.8,0.,4.8,0.,4.8,0.,4.8
1981-08-29 12:10:04.520 ,6,0,0.,4.8,0.,4.8,0.,4.8,0.,4.8
1981-08-29 12:10:09.320 ,6,0,0.,4.8,0.,4.8,0.,4.8,0.,4.8
1981-08-29 12:10:14.120 ,6,0,2.,4.8,0.,4.8,0.,4.8,0.,4.8
1981-08-29 12:10:18.920 ,6,0,0.,4.8,0.,4.8,0.,4.8,0.,4.8
1981-08-29 12:10:23.720 ,7,0,1.,4.8,0.,4.8,0.,4.8,0.,4.8
1981-08-29 12:10:28.520 ,7,0,0.,4.8,0.,4.8,0.,4.8,0.,4.8
1981-08-29 12:10:33.320 ,7,0,0.,4.8,0.,4.8,0.,4.8,0.,4.8
1981-08-29 12:10:38.120 ,7,0,0.,4.8,0.,4.8,0.,4.8,0.,4.8
1981-08-29 12:10:42.920 ,7,0,0.,4.8,0.,4.8,0.,4.8,0.,4.8
1981-08-29 12:10:47.720 ,7,0,0.,4.8,0.,4.8,0.,4.8,0.,4.8
1981-08-29 12:10:52.520 ,7,0,0.,4.8,0.,4.8,0.,4.8,0.,4.8
1981-08-29 12:10:57.320 ,7,0,1.,4.8,0.,4.8,1.,4.8,0.,4.8
1981-08-29 12:11:02.120 ,7,0,1.,4.8,0.,4.8,0.,4.8,0.,4.8
1981-08-29 12:11:06.920 ,7,0,0.,4.8,0.,4.8,0.,4.8,0.,4.8
1981-08-29 12:11:11.720 ,7,0,0.,4.8,0.,4.8,0.,4.8,0.,4.8
1981-08-29 12:11:16.520 ,7,0,1.,4.8,0.,4.8,0.,4.8,0.,4.8
1981-08-29 12:11:21.320 ,7,0,1.,4.8,0.,4.8,0.,4.8,0.,4.8
1981-08-29 12:11:26.120 ,7,0,0.,4.8,0.,4.8,0.,4.8,0.,4.8
1981-08-29 12:11:30.920 ,7,0,1.,4.8,0.,4.8,0.,4.8,0.,4.8
1981-08-29 12:11:35.720 ,6,0,0.,4.8,0.,4.8,0.,4.8,0.,4.8
1981-08-29 12:11:40.520 ,6,0,0.,4.8,0.,4.8,0.,4.8,0.,4.8
1981-08-29 12:11:45.320 ,6,0,0.,4.8,0.,4.8,0.,4.8,0.,4.8
1981-08-29 12:11:50.120 ,6,0,0.,4.8,0.,4.8,0.,4.8,0.,4.8
1981-08-29 12:11:54.920 ,6,0,1.,4.8,0.,4.8,0.,4.8,0.,4.8
1981-08-29 12:11:59.720 ,5,0,0.,4.8,0.,4.8,0.,4.8,0.,4.8
1981-08-29 12:12:04.520 ,5,0,0.,4.8,0.,4.8,0.,4.8,0.,4.8
1981-08-29 12:12:09.320 ,5,0,0.,4.8,0.,4.8,1.,4.8,0.,4.8
1981-08-29 12:12:14.120 ,5,0,0.,4.8,0.,4.8,0.,4.8,0.,4.8
1981-08-29 12:12:18.920 ,5,0,1.,4.8,0.,4.8,0.,4.8,0.,4.8
1981-08-29 12:12:23.720 ,4,0,0.,4.8,0.,4.8,0.,4.8,0.,4.8
1981-08-29 12:12:28.520 ,4,0,0.,4.8,0.,4.8,0.,4.8,0.,4.8
1981-08-29 12:12:33.320 ,4,0,1.,4.8,0.,4.8,0.,4.8,0.,4.8
1981-08-29 12:12:38.120 ,4,0,1.,4.8,0.,4.8,0.,4.8,0.,4.8
1981-08-29 12:12:42.920 ,4,0,0.,4.8,0.,4.8,0.,4.8,0.,4.8
1981-08-29 12:12:47.720 ,3,0,0.,4.8,0.,4.8,0.,4.8,0.,4.8
1981-08-29 12:12:52.520 ,3,0,0.,4.8,0.,4.8,0.,4.8,0.,4.8
1981-08-29 12:12:57.320 ,3,0,0.,4.8,0.,4.8,0.,4.8,0.,4.8
1981-08-29 12:13:02.120 ,3,0,0.,4.8,0.,4.8,0.,4.8,0.,4.8
1981-08-29 12:13:06.920 ,3,0,1.,4.8,0.,4.8,1.,4.8,0.,4.8
1981-08-29 12:13:11.720 ,2,0,0.,4.8,0.,4.8,0.,4.8,0.,4.8
1981-08-29 12:13:16.520 ,2,0,1.,4.8,0.,4.8,1.,4.8,0.,4.8
1981-08-29 12:13:21.320 ,2,0,0.,4.8,0.,4.8,0.,4.8,0.,4.8
1981-08-29 12:13:26.120 ,2,0,0.,4.8,0.,4.8,0.,4.8,0.,4.8
1981-08-29 12:13:30.920 ,2,0,0.,4.8,0.,4.8,0.,4.8,0.,4.8
1981-08-29 12:13:35.720 ,1,0,0.,4.8,0.,4.8,0.,4.8,0.,4.8
1981-08-29 12:13:40.520 ,1,0,0.,4.8,0.,4.8,0.,4.8,0.,4.8
1981-08-29 12:13:45.320 ,1,0,0.,4.8,0.,4.8,1.,4.8,0.,4.8
1981-08-29 12:13:50.120 ,1,0,1.,4.8,0.,4.8,1.,4.8,0.,4.8
1981-08-29 12:13:54.920 ,1,0,0.,4.8,0.,4.8,0.,4.8,0.,4.8
1981-08-29 12:13:59.720 ,0,0,0.,4.8,0.,4.8,0.,4.8,0.,4.8
1981-08-29 12:14:04.520 ,0,0,0.,4.8,0.,4.8,0.,4.8,0.,4.8
1981-08-29 12:14:09.320 ,0,0,0.,4.8,0.,4.8,0.,4.8,0.,4.8
1981-08-29 12:14:14.120 ,0,0,0.,4.8,0.,4.8,0.,4.8,0.,4.8
1981-08-29 12:14:18.920 ,0,0,0.,4.8,0.,4.8,0.,4.8,0.,4.8
1981-08-29 12:14:23.720 ,0,0,1.,4.8,0.,4.8,0.,4.8,0.,4.8
1981-08-29 12:14:28.520 ,0,0,0.,4.8,0.,4.8,0.,4.8,0.,4.8
1981-08-29 12:14:33.320 ,0,0,0.,4.8,0.,4.8,1.,4.8,0.,4.8
1981-08-29 12:14:38.120 ,0,0,0.,4.8,0.,4.8,1.,4.8,0.,4.8
1981-08-29 12:14:42.920 ,0,0,0.,4.8,0.,4.8,0.,4.8,0.,4.8
1981-08-29 12:14:47.720 ,1,0,0.,4.8,0.,4.8,0.,4.8,0.,4.8
1981-08-29 12:14:52.520 ,1,0,0.,4.8,0.,4.8,1.,4.8,0.,4.8
1981-08-29 12:14:57.320 ,1,0,0.,4.8,0.,4.8,0.,4.8,0.,4.8
1981-08-29 12:15:02.120 ,1,0,0.,4.8,0.,4.8,0.,4.8,0.,4.8
1981-08-29 12:15:06.920 ,1,0,0.,4.8,0.,4.8,0.,4.8,0.,4.8
1981-08-29 12:15:11.720 ,2,0,3.,4.8,0.,4.8,0.,4.8,0.,4.8
1981-08-29 12:15:16.520 ,2,0,0.,4.8,0.,4.8,0.,4.8,0.,4.8
1981-08-29 12:15:21.320 ,2,0,0.,4.8,0.,4.8,0.,4.8,0.,4.8
1981-08-29 12:15:26.120 ,2,0,2.,4.8,0.,4.8,0.,4.8,0.,4.8
1981-08-29 12:15:30.920 ,2,0,0.,4.8,0.,4.8,0.,4.8,0.,4.8
1981-08-29 12:15:35.720 ,3,0,0.,4.8,0.,4.8,1.,4.8,0.,4.8
1981-08-29 12:15:40.520 ,3,0,0.,4.8,0.,4.8,0.,4.8,0.,4.8
1981-08-29 12:15:45.320 ,3,0,1.,4.8,0.,4.8,0.,4.8,0.,4.8
1981-08-29 12:15:50.120 ,3,0,0.,4.8,0.,4.8,0.,4.8,0.,4.8
1981-08-29 12:15:54.920 ,3,0,1.,4.8,0.,4.8,0.,4.8,0.,4.8
1981-08-29 12:15:59.720 ,4,0,1.,4.8,0.,4.8,0.,4.8,0.,4.8
1981-08-29 12:16:04.520 ,4,0,0.,4.8,0.,4.8,0.,4.8,0.,4.8
1981-08-29 12:16:09.320 ,4,0,0.,4.8,0.,4.8,0.,4.8,0.,4.8
1981-08-29 12:16:14.120 ,4,0,0.,4.8,0.,4.8,0.,4.8,0.,4.8
1981-08-29 12:16:18.920 ,4,0,0.,4.8,0.,4.8,1.,4.8,0.,4.8
1981-08-29 12:16:23.720 ,5,0,0.,4.8,0.,4.8,0.,4.8,0.,4.8
1981-08-29 12:16:28.520 ,5,0,0.,4.8,0.,4.8,0.,4.8,0.,4.8
1981-08-29 12:16:33.320 ,5,0,0.,4.8,0.,4.8,0.,4.8,0.,4.8
1981-08-29 12:16:38.120 ,5,0,0.,4.8,0.,4.8,0.,4.8,0.,4.8
1981-08-29 12:16:42.920 ,5,0,0.,4.8,1.,4.8,0.,4.8,0.,4.8
1981-08-29 12:16:47.720 ,6,0,0.,4.8,0.,4.8,0.,4.8,0.,4.8
1981-08-29 12:16:52.520 ,6,0,0.,4.8,0.,4.8,0.,4.8,0.,4.8
1981-08-29 12:16:57.320 ,6,0,1.,4.8,0.,4.8,0.,4.8,0.,4.8
1981-08-29 12:17:02.120 ,6,0,0.,4.8,0.,4.8,0.,4.8,0.,4.8
1981-08-29 12:17:06.920 ,6,0,1.,4.8,0.,4.8,0.,4.8,0.,4.8
1981-08-29 12:17:11.720 ,7,0,1.,4.8,0.,4.8,0.,4.8,0.,4.8
1981-08-29 12:17:16.520 ,7,0,0.,4.8,0.,4.8,0.,4.8,0.,4.8
1981-08-29 12:17:21.320 ,7,0,1.,4.8,0.,4.8,0.,4.8,0.,4.8
1981-08-29 12:17:26.120 ,7,0,1.,4.8,0.,4.8,0.,4.8,0.,4.8
1981-08-29 12:17:30.920 ,7,0,0.,4.8,0.,4.8,0.,4.8,0.,4.8
1981-08-29 12:17:35.720 ,7,0,0.,4.8,0.,4.8,0.,4.8,0.,4.8
1981-08-29 12:17:40.520 ,7,0,0.,4.8,0.,4.8,0.,4.8,0.,4.8
1981-08-29 12:17:45.320 ,7,0,1.,4.8,0.,4.8,0.,4.8,0.,4.8
1981-08-29 12:17:50.120 ,7,0,0.,4.8,0.,4.8,1.,4.8,0.,4.8
1981-08-29 12:17:54.920 ,7,0,0.,4.8,0.,4.8,0.,4.8,0.,4.8
1981-08-29 12:17:59.720 ,7,0,0.,4.8,0.,4.8,0.,4.8,0.,4.8
1981-08-29 12:18:04.520 ,7,0,0.,4.8,0.,4.8,0.,4.8,0.,4.8
1981-08-29 12:18:09.320 ,7,0,1.,4.8,0.,4.8,1.,4.8,0.,4.8
1981-08-29 12:18:14.120 ,7,0,0.,4.8,0.,4.8,0.,4.8,0.,4.8
1981-08-29 12:18:18.920 ,7,0,0.,4.8,0.,4.8,1.,4.8,0.,4.8
1981-08-29 12:18:23.720 ,6,0,1.,4.8,0.,4.8,0.,4.8,0.,4.8
1981-08-29 12:18:28.520 ,6,0,1.,4.8,0.,4.8,0.,4.8,0.,4.8
1981-08-29 12:18:33.320 ,6,0,0.,4.8,0.,4.8,0.,4.8,0.,4.8
1981-08-29 12:18:38.120 ,6,0,0.,4.8,0.,4.8,0.,4.8,0.,4.8
1981-08-29 12:18:42.920 ,6,0,1.,4.8,0.,4.8,0.,4.8,0.,4.8
1981-08-29 12:18:47.720 ,6,0,0.,4.8,0.,4.8,0.,4.8,0.,4.8
1981-08-29 12:18:52.520 ,6,0,0.,4.8,0.,4.8,0.,4.8,0.,4.8
1981-08-29 12:18:57.320 ,6,0,1.,4.8,0.,4.8,0.,4.8,0.,4.8
1981-08-29 12:19:02.120 ,6,0,0.,4.8,0.,4.8,0.,4.8,0.,4.8
1981-08-29 12:19:06.920 ,6,0,0.,4.8,0.,4.8,0.,4.8,0.,4.8
1981-08-29 12:19:11.720 ,5,0,0.,4.8,0.,4.8,0.,4.8,0.,4.8
1981-08-29 12:19:16.520 ,5,0,0.,4.8,0.,4.8,0.,4.8,0.,4.8
1981-08-29 12:19:21.320 ,5,0,1.,4.8,0.,4.8,0.,4.8,0.,4.8
1981-08-29 12:19:26.120 ,5,0,1.,4.8,0.,4.8,0.,4.8,0.,4.8
1981-08-29 12:19:30.920 ,5,0,0.,4.8,0.,4.8,0.,4.8,0.,4.8
1981-08-29 12:19:35.720 ,5,0,0.,4.8,0.,4.8,0.,4.8,0.,4.8
1981-08-29 12:19:40.520 ,5,0,0.,4.8,0.,4.8,0.,4.8,0.,4.8
1981-08-29 12:19:45.320 ,5,0,1.,4.8,0.,4.8,1.,4.8,0.,4.8
1981-08-29 12:19:50.120 ,5,0,0.,4.8,0.,4.8,1.,4.8,0.,4.8
1981-08-29 12:19:54.920 ,5,0,0.,4.8,0.,4.8,0.,4.8,0.,4.8
1981-08-29 12:19:59.720 ,4,0,2.,4.8,0.,4.8,0.,4.8,0.,4.8
1981-08-29 12:20:04.520 ,4,0,0.,4.8,0.,4.8,0.,4.8,0.,4.8
1981-08-29 12:20:09.320 ,4,0,0.,4.8,0.,4.8,0.,4.8,0.,4.8
1981-08-29 12:20:14.120 ,4,0,1.,4.8,0.,4.8,0.,4.8,0.,4.8
1981-08-29 12:20:18.920 ,4,0,0.,4.8,0.,4.8,0.,4.8,0.,4.8
1981-08-29 12:20:23.720 ,4,0,1.,4.8,0.,4.8,0.,4.8,0.,4.8
1981-08-29 12:20:28.520 ,4,0,0.,4.8,0.,4.8,0.,4.8,0.,4.8
1981-08-29 12:20:33.320 ,4,0,0.,4.8,0.,4.8,0.,4.8,0.,4.8
1981-08-29 12:20:38.120 ,4,0,0.,4.8,0.,4.8,0.,4.8,0.,4.8
1981-08-29 12:20:42.920 ,4,0,0.,4.8,0.,4.8,0.,4.8,0.,4.8
1981-08-29 12:20:47.720 ,3,0,1.,4.8,0.,4.8,0.,4.8,0.,4.8
1981-08-29 12:20:52.520 ,3,0,1.,4.8,0.,4.8,0.,4.8,0.,4.8
1981-08-29 12:20:57.320 ,3,0,0.,4.8,0.,4.8,0.,4.8,0.,4.8
1981-08-29 12:21:02.120 ,3,0,0.,4.8,0.,4.8,1.,4.8,0.,4.8
1981-08-29 12:21:06.920 ,3,0,0.,4.8,0.,4.8,0.,4.8,0.,4.8
1981-08-29 12:21:11.720 ,3,0,0.,4.8,0.,4.8,0.,4.8,0.,4.8
1981-08-29 12:21:16.520 ,3,0,0.,4.8,0.,4.8,0.,4.8,0.,4.8
1981-08-29 12:21:21.320 ,3,0,0.,4.8,0.,4.8,0.,4.8,0.,4.8
1981-08-29 12:21:26.120 ,3,0,1.,4.8,0.,4.8,0.,4.8,0.,4.8
1981-08-29 12:21:30.920 ,3,0,1.,4.8,0.,4.8,0.,4.8,0.,4.8
1981-08-29 12:21:35.720 ,2,0,1.,4.8,0.,4.8,0.,4.8,0.,4.8
1981-08-29 12:21:40.520 ,2,0,0.,4.8,0.,4.8,0.,4.8,0.,4.8
1981-08-29 12:21:45.320 ,2,0,0.,4.8,0.,4.8,0.,4.8,0.,4.8
1981-08-29 12:21:50.120 ,2,0,0.,4.8,0.,4.8,0.,4.8,0.,4.8
1981-08-29 12:21:54.920 ,2,0,0.,4.8,0.,4.8,0.,4.8,0.,4.8
1981-08-29 12:21:59.720 ,2,0,1.,4.8,0.,4.8,0.,4.8,0.,4.8
1981-08-29 12:22:04.520 ,2,0,1.,4.8,0.,4.8,0.,4.8,0.,4.8
1981-08-29 12:22:09.320 ,2,0,0.,4.8,0.,4.8,0.,4.8,0.,4.8
1981-08-29 12:22:14.120 ,2,0,0.,4.8,0.,4.8,0.,4.8,0.,4.8
1981-08-29 12:22:18.920 ,2,0,2.,4.8,0.,4.8,0.,4.8,0.,4.8
1981-08-29 12:22:23.720 ,1,0,0.,4.8,0.,4.8,0.,4.8,0.,4.8
1981-08-29 12:22:28.520 ,1,0,0.,4.8,0.,4.8,0.,4.8,0.,4.8
1981-08-29 12:22:33.320 ,1,0,0.,4.8,0.,4.8,0.,4.8,0.,4.8
1981-08-29 12:22:38.120 ,1,0,0.,4.8,1.,4.8,0.,4.8,0.,4.8
1981-08-29 12:22:42.920 ,1,0,0.,4.8,0.,4.8,0.,4.8,0.,4.8
1981-08-29 12:22:47.720 ,1,0,0.,4.8,0.,4.8,0.,4.8,0.,4.8
1981-08-29 12:22:52.520 ,1,0,1.,4.8,0.,4.8,0.,4.8,0.,4.8
1981-08-29 12:22:57.320 ,1,0,1.,4.8,0.,4.8,0.,4.8,0.,4.8
1981-08-29 12:23:02.120 ,1,0,0.,4.8,0.,4.8,0.,4.8,0.,4.8
1981-08-29 12:23:06.920 ,1,0,0.,4.8,0.,4.8,0.,4.8,0.,4.8
1981-08-29 12:23:11.720 ,0,0,1.,4.8,0.,4.8,0.,4.8,0.,4.8
1981-08-29 12:23:16.520 ,0,0,1.,4.8,0.,4.8,0.,4.8,0.,4.8
1981-08-29 12:23:21.320 ,0,0,0.,4.8,0.,4.8,0.,4.8,0.,4.8
1981-08-29 12:23:26.120 ,0,0,0.,4.8,0.,4.8,0.,4.8,0.,4.8
1981-08-29 12:23:30.920 ,0,0,0.,4.8,0.,4.8,0.,4.8,0.,4.8
1981-08-29 12:23:35.720 ,0,0,1.,4.8,0.,4.8,0.,4.8,0.,4.8
1981-08-29 12:23:40.520 ,0,0,0.,4.8,0.,4.8,0.,4.8,0.,4.8
1981-08-29 12:23:45.320 ,0,0,1.,4.8,0.,4.8,1.,4.8,0.,4.8
1981-08-29 12:23:50.120 ,0,0,0.,4.8,0.,4.8,0.,4.8,0.,4.8
1981-08-29 12:23:54.920 ,0,0,1.,4.8,0.,4.8,0.,4.8,0.,4.8
1981-08-29 12:23:59.720 ,0,0,2.,4.8,0.,4.8,0.,4.8,0.,4.8
1981-08-29 12:24:04.520 ,0,0,0.,4.8,0.,4.8,0.,4.8,0.,4.8
1981-08-29 12:24:09.320 ,0,0,2.,4.8,0.,4.8,0.,4.8,0.,4.8
1981-08-29 12:24:14.120 ,0,0,0.,4.8,0.,4.8,0.,4.8,0.,4.8
1981-08-29 12:24:18.920 ,0,0,0.,4.8,0.,4.8,0.,4.8,0.,4.8
1981-08-29 12:24:23.720 ,0,0,1.,4.8,0.,4.8,0.,4.8,0.,4.8
1981-08-29 12:24:28.520 ,0,0,0.,4.8,0.,4.8,0.,4.8,0.,4.8
1981-08-29 12:24:33.320 ,0,0,0.,4.8,0.,4.8,0.,4.8,0.,4.8
1981-08-29 12:24:38.120 ,0,0,2.,4.8,0.,4.8,0.,4.8,0.,4.8
1981-08-29 12:24:42.920 ,0,0,0.,4.8,0.,4.8,0.,4.8,0.,4.8
1981-08-29 12:24:47.720 ,1,0,1.,4.8,0.,4.8,0.,4.8,0.,4.8
1981-08-29 12:24:52.520 ,1,0,0.,4.8,0.,4.8,0.,4.8,0.,4.8
1981-08-29 12:24:57.320 ,1,0,0.,4.8,0.,4.8,0.,4.8,0.,4.8
1981-08-29 12:25:02.120 ,1,0,0.,4.8,0.,4.8,1.,4.8,0.,4.8
1981-08-29 12:25:06.920 ,1,0,0.,4.8,0.,4.8,0.,4.8,0.,4.8
1981-08-29 12:25:11.720 ,0,0,0.,4.8,0.,4.8,0.,4.8,0.,4.8
1981-08-29 12:25:16.520 ,0,0,0.,4.8,0.,4.8,0.,4.8,0.,4.8
1981-08-29 12:25:21.320 ,0,0,0.,4.8,0.,4.8,0.,4.8,0.,4.8
1981-08-29 12:25:26.120 ,0,0,1.,4.8,0.,4.8,0.,4.8,0.,4.8
1981-08-29 12:25:30.920 ,0,0,1.,4.8,0.,4.8,0.,4.8,0.,4.8
1981-08-29 12:25:35.720 ,2,0,1.,4.8,0.,4.8,0.,4.8,0.,4.8
1981-08-29 12:25:40.520 ,2,0,1.,4.8,0.,4.8,0.,4.8,0.,4.8
1981-08-29 12:25:45.320 ,2,0,0.,4.8,0.,4.8,1.,4.8,0.,4.8
1981-08-29 12:25:50.120 ,2,0,0.,4.8,0.,4.8,0.,4.8,0.,4.8
1981-08-29 12:25:54.920 ,2,0,1.,4.8,0.,4.8,0.,4.8,0.,4.8
1981-08-29 12:25:59.720 ,2,0,1.,4.8,0.,4.8,0.,4.8,0.,4.8
1981-08-29 12:26:04.520 ,2,0,0.,4.8,0.,4.8,0.,4.8,0.,4.8
1981-08-29 12:26:09.320 ,2,0,0.,4.8,0.,4.8,0.,4.8,0.,4.8
1981-08-29 12:26:14.120 ,2,0,1.,4.8,0.,4.8,0.,4.8,0.,4.8
1981-08-29 12:26:18.920 ,2,0,0.,4.8,0.,4.8,0.,4.8,0.,4.8
1981-08-29 12:26:23.720 ,3,0,0.,4.8,0.,4.8,0.,4.8,0.,4.8
1981-08-29 12:26:28.520 ,3,0,0.,4.8,0.,4.8,0.,4.8,0.,4.8
1981-08-29 12:26:33.320 ,3,0,1.,4.8,0.,4.8,0.,4.8,0.,4.8
1981-08-29 12:26:38.120 ,3,0,0.,4.8,0.,4.8,0.,4.8,0.,4.8
1981-08-29 12:26:42.920 ,3,0,3.,4.8,0.,4.8,0.,4.8,0.,4.8
1981-08-29 12:26:47.720 ,3,0,0.,4.8,0.,4.8,0.,4.8,0.,4.8
1981-08-29 12:26:52.520 ,3,0,0.,4.8,0.,4.8,0.,4.8,0.,4.8
1981-08-29 12:26:57.320 ,3,0,0.,4.8,0.,4.8,1.,4.8,0.,4.8
1981-08-29 12:27:02.120 ,3,0,1.,4.8,0.,4.8,0.,4.8,0.,4.8
1981-08-29 12:27:06.920 ,3,0,0.,4.8,0.,4.8,0.,4.8,0.,4.8
1981-08-29 12:27:11.720 ,4,0,0.,4.8,0.,4.8,0.,4.8,0.,4.8
1981-08-29 12:27:16.520 ,4,0,1.,4.8,0.,4.8,0.,4.8,0.,4.8
1981-08-29 12:27:21.320 ,4,0,1.,4.8,0.,4.8,0.,4.8,0.,4.8
1981-08-29 12:27:26.120 ,4,0,0.,4.8,0.,4.8,0.,4.8,0.,4.8
1981-08-29 12:27:30.920 ,4,0,0.,4.8,0.,4.8,0.,4.8,0.,4.8
1981-08-29 12:27:35.720 ,4,0,1.,4.8,0.,4.8,0.,4.8,0.,4.8
1981-08-29 12:27:40.520 ,4,0,2.,4.8,0.,4.8,0.,4.8,0.,4.8
1981-08-29 12:27:45.320 ,4,0,0.,4.8,0.,4.8,0.,4.8,0.,4.8
1981-08-29 12:27:50.120 ,4,0,0.,4.8,0.,4.8,0.,4.8,0.,4.8
1981-08-29 12:27:54.920 ,4,0,0.,4.8,0.,4.8,0.,4.8,0.,4.8
1981-08-29 12:27:59.720 ,5,0,0.,4.8,0.,4.8,0.,4.8,0.,4.8
1981-08-29 12:28:04.520 ,5,0,2.,4.8,0.,4.8,0.,4.8,0.,4.8
1981-08-29 12:28:09.320 ,5,0,0.,4.8,0.,4.8,0.,4.8,0.,4.8
1981-08-29 12:28:14.120 ,5,0,0.,4.8,1.,4.8,0.,4.8,0.,4.8
1981-08-29 12:28:18.920 ,5,0,1.,4.8,0.,4.8,1.,4.8,0.,4.8
1981-08-29 12:28:23.720 ,5,0,0.,4.8,0.,4.8,0.,4.8,0.,4.8
1981-08-29 12:28:28.520 ,5,0,0.,4.8,0.,4.8,0.,4.8,0.,4.8
1981-08-29 12:28:33.320 ,5,0,0.,4.8,0.,4.8,0.,4.8,0.,4.8
1981-08-29 12:28:38.120 ,5,0,1.,4.8,0.,4.8,0.,4.8,0.,4.8
1981-08-29 12:28:42.920 ,5,0,0.,4.8,0.,4.8,0.,4.8,0.,4.8
1981-08-29 12:28:47.720 ,6,0,0.,4.8,0.,4.8,0.,4.8,0.,4.8
1981-08-29 12:28:52.520 ,6,0,0.,4.8,0.,4.8,1.,4.8,0.,4.8
1981-08-29 12:28:57.320 ,6,0,0.,4.8,0.,4.8,1.,4.8,0.,4.8
1981-08-29 12:29:02.120 ,6,0,0.,4.8,1.,4.8,0.,4.8,0.,4.8
1981-08-29 12:29:06.920 ,6,0,1.,4.8,0.,4.8,0.,4.8,0.,4.8
1981-08-29 12:29:11.720 ,6,0,2.,4.8,0.,4.8,0.,4.8,0.,4.8
1981-08-29 12:29:16.520 ,6,0,0.,4.8,0.,4.8,0.,4.8,0.,4.8
1981-08-29 12:29:21.320 ,6,0,0.,4.8,0.,4.8,0.,4.8,0.,4.8
1981-08-29 12:29:26.120 ,6,0,0.,4.8,0.,4.8,0.,4.8,0.,4.8
1981-08-29 12:29:30.920 ,6,0,0.,4.8,0.,4.8,0.,4.8,0.,4.8
1981-08-29 12:29:35.720 ,7,0,0.,4.8,0.,4.8,0.,4.8,0.,4.8
1981-08-29 12:29:40.520 ,7,0,0.,4.8,0.,4.8,0.,4.8,0.,4.8
1981-08-29 12:29:45.320 ,7,0,0.,4.8,0.,4.8,0.,4.8,0.,4.8
1981-08-29 12:29:50.120 ,7,0,0.,4.8,0.,4.8,0.,4.8,0.,4.8
1981-08-29 12:29:54.920 ,7,0,0.,4.8,0.,4.8,0.,4.8,0.,4.8
1981-08-29 12:29:59.720 ,7,0,0.,4.8,0.,4.8,0.,4.8,0.,4.8
1981-08-29 12:30:04.520 ,7,0,0.,4.8,0.,4.8,1.,4.8,0.,4.8
1981-08-29 12:30:09.320 ,7,0,0.,4.8,0.,4.8,0.,4.8,0.,4.8
1981-08-29 12:30:14.120 ,7,0,0.,4.8,0.,4.8,0.,4.8,0.,4.8
1981-08-29 12:30:18.920 ,7,0,0.,4.8,0.,4.8,0.,4.8,0.,4.8
1981-08-29 12:30:23.720 ,7,0,2.,4.8,0.,4.8,0.,4.8,0.,4.8
1981-08-29 12:30:28.520 ,7,0,0.,4.8,0.,4.8,0.,4.8,0.,4.8
1981-08-29 12:30:33.320 ,7,0,1.,4.8,0.,4.8,0.,4.8,0.,4.8
1981-08-29 12:30:38.120 ,7,0,0.,4.8,0.,4.8,0.,4.8,0.,4.8
1981-08-29 12:30:42.920 ,7,0,0.,4.8,0.,4.8,1.,4.8,0.,4.8
1981-08-29 12:30:47.720 ,6,0,0.,4.8,0.,4.8,0.,4.8,0.,4.8
1981-08-29 12:30:52.520 ,6,0,1.,4.8,0.,4.8,0.,4.8,0.,4.8
1981-08-29 12:30:57.320 ,6,0,0.,4.8,0.,4.8,0.,4.8,0.,4.8
1981-08-29 12:31:02.120 ,6,0,0.,4.8,0.,4.8,1.,4.8,0.,4.8
1981-08-29 12:31:06.920 ,6,0,2.,4.8,0.,4.8,0.,4.8,0.,4.8
1981-08-29 12:31:11.720 ,5,0,1.,4.8,0.,4.8,0.,4.8,0.,4.8
1981-08-29 12:31:16.520 ,5,0,0.,4.8,0.,4.8,0.,4.8,0.,4.8
1981-08-29 12:31:21.320 ,5,0,0.,4.8,0.,4.8,0.,4.8,0.,4.8
1981-08-29 12:31:26.120 ,5,0,1.,4.8,0.,4.8,1.,4.8,0.,4.8
1981-08-29 12:31:30.920 ,5,0,0.,4.8,0.,4.8,0.,4.8,0.,4.8
1981-08-29 12:31:35.720 ,4,0,1.,4.8,0.,4.8,0.,4.8,0.,4.8
1981-08-29 12:31:40.520 ,4,0,0.,4.8,0.,4.8,0.,4.8,0.,4.8
1981-08-29 12:31:45.320 ,4,0,1.,4.8,0.,4.8,0.,4.8,0.,4.8
1981-08-29 12:31:50.120 ,4,0,1.,4.8,0.,4.8,0.,4.8,0.,4.8
1981-08-29 12:31:54.920 ,4,0,0.,4.8,0.,4.8,1.,4.8,0.,4.8
1981-08-29 12:31:59.720 ,3,0,1.,4.8,0.,4.8,0.,4.8,0.,4.8
1981-08-29 12:32:04.520 ,3,0,0.,4.8,0.,4.8,0.,4.8,0.,4.8
1981-08-29 12:32:09.320 ,3,0,0.,4.8,0.,4.8,0.,4.8,0.,4.8
1981-08-29 12:32:14.120 ,3,0,0.,4.8,0.,4.8,0.,4.8,0.,4.8
1981-08-29 12:32:18.920 ,3,0,2.,4.8,0.,4.8,0.,4.8,0.,4.8
1981-08-29 12:32:23.720 ,2,0,0.,4.8,0.,4.8,1.,4.8,0.,4.8
1981-08-29 12:32:28.520 ,2,0,0.,4.8,0.,4.8,0.,4.8,0.,4.8
1981-08-29 12:32:33.320 ,2,0,0.,4.8,0.,4.8,0.,4.8,0.,4.8
1981-08-29 12:32:38.120 ,2,0,0.,4.8,0.,4.8,0.,4.8,0.,4.8
1981-08-29 12:32:42.920 ,2,0,0.,4.8,0.,4.8,0.,4.8,0.,4.8
1981-08-29 12:32:47.720 ,1,0,1.,4.8,0.,4.8,0.,4.8,0.,4.8
1981-08-29 12:32:52.520 ,1,0,0.,4.8,0.,4.8,0.,4.8,0.,4.8
1981-08-29 12:32:57.320 ,1,0,0.,4.8,0.,4.8,0.,4.8,0.,4.8
1981-08-29 12:33:02.120 ,1,0,1.,4.8,0.,4.8,0.,4.8,0.,4.8
1981-08-29 12:33:06.920 ,1,0,0.,4.8,0.,4.8,1.,4.8,0.,4.8
1981-08-29 12:33:11.720 ,0,0,0.,4.8,0.,4.8,0.,4.8,0.,4.8
1981-08-29 12:33:16.520 ,0,0,0.,4.8,0.,4.8,0.,4.8,0.,4.8